Location: Anmer
(52.8333°N, 0.5833°E)
Time: 11:03:46
(UTC+00:00)

USA 290 - Pass Details

Date: 15 May 2026
Orbit: 396 x 415 km, 73.6° (Epoch: 30 October)

Event Time Altitude Azimuth Distance (km) Brightness Sun altitude
Exits shadow 21:18:07 16° 158° (SSE) 1,106 3.8 -10.6°
Maximum altitude 21:19:55 28° 107° (ESE) 772 3.1 -10.8°
Drops below altitude 10° 21:22:40 10° 46° (NE) 1,435 5.1 -11.0°
Sets 21:24:51 0° 35° (NE) 2,296 6.3 -11.2°
